Wind_Speed
43 42 42 43 43 43 44 44 43 39 37 34 32 30 28 27 27 28 27 27 27 26 26 26 27 27 27 27 28 29 31 31 32 33 33 34 36 36 35 36 35 34 34
40 40 39 39 39 39 39 36 33 31 29 26 26 26 26 26 26 26 24 22 22 22 21 20 21 22 24 25 27 28 30 31 32 33 34 35 36 37 38 39 39 39 39
36 36 35 35 34 33 31 28 26 24 22 22 23 24 25 24 22 21 21 21 21 22 23 23 24 25 26 27 28 28 29 30 31 32 33 33 34 35 35 37 38 38 37
32 31 31 30 29 26 23 21 20 20 18 20 21 22 22 22 21 21 21 22 22 22 22 22 24 25 25 26 26 27 27 28 29 30 31 31 33 33 34 35 36 36 35
28 27 26 25 23 19 18 17 15 14 15 18 21 22 20 20 21 23 24 23 22 22 21 21 21 22 22 23 23 24 25 27 28 29 30 31 33 34 35 36 36 35 34
26 24 23 22 18 16 15 14 13 11 10 12 16 18 18 19 21 22 22 22 22 21 20 20 19 19 19 20 21 23 25 27 28 29 31 33 34 36 37 37 36 35 34
27 24 22 20 17 15 15 14 13 10 9 7 8 11 13 15 17 18 19 19 18 18 17 17 17 17 18 20 21 23 25 27 28 30 32 33 34 35 36 37 37 37 37
28 26 23 19 16 14 14 14 13 10 9 9 9 10 12 14 16 17 17 17 16 16 16 16 16 17 17 19 20 22 24 25 25 27 28 29 31 32 34 35 36 36 37
28 26 22 18 15 14 14 13 12 13 12 13 12 12 12 14 14 15 16 15 14 14 14 14 14 15 16 17 18 18 18 19 21 23 25 28 31 34 36 38 38 37 36
28 24 21 17 15 13 13 13 13 14 16 17 17 16 15 14 14 14 14 14 14 13 12 13 14 15 14 13 12 14 16 19 22 24 27 30 34 36 39 40 39 39 38
27 22 19 17 16 14 13 13 13 14 15 16 17 16 14 13 14 14 14 14 12 11 12 13 11 8 9 10 13 16 19 22 24 27 30 33 35 36 37 36 35 34 34
27 23 20 18 17 16 15 13 12 12 11 11 11 10 10 9 10 10 10 10 10 10 11 10 8 8 10 12 14 17 20 23 26 29 32 34 34 33 31 29 28 28 28
30 27 24 21 19 17 15 13 12 10 9 9 8 7 7 6 6 6 7 8 9 9 9 9 9 11 11 13 16 19 22 25 28 31 33 33 32 30 27 26 26 26 25
33 32 29 25 22 19 16 14 12 10 10 9 8 7 6 6 6 6 6 7 8 8 9 10 11 11 11 13 16 20 23 26 29 31 32 32 31 29 27 26 26 26 25
34 35 32 29 25 21 17 15 14 12 11 10 9 8 7 7 7 8 8 9 10 10 10 11 11 11 12 13 16 18 21 24 27 29 30 30 29 28 26 25 24 25 24
35 37 35 31 28 24 20 17 15 14 13 12 10 9 8 9 9 10 10 11 12 12 12 12 11 11 12 14 15 16 20 25 27 28 28 27 26 25 23 21 21 22 22
35 37 38 35 31 28 25 21 18 16 15 14 13 11 11 11 12 12 12 13 14 14 13 12 11 12 13 14 15 17 20 24 26 27 27 26 25 24 22 20 19 21 22
36 36 39 38 34 31 29 27 24 21 19 17 17 16 15 15 16 16 17 16 16 16 14 13 12 12 13 14 14 16 19 23 25 26 27 27 26 25 23 21 20 20 22
37 34 38 40 37 34 31 29 27 25 23 21 21 20 20 19 19 19 19 18 18 17 16 15 13 13 14 14 14 15 18 21 24 26 27 27 27 27 26 24 22 21 21
37 33 34 39 40 38 34 31 28 25 22 20 20 21 22 22 21 20 20 19 18 18 18 17 16 16 15 14 13 13 15 18 21 25 27 28 28 28 28 26 25 24 23
39 33 31 36 40 40 38 34 30 26 23 21 20 21 22 22 21 21 20 20 21 20 19 19 18 18 17 15 14 13 14 16 20 23 27 28 29 30 30 30 29 28 27
40 32 28 30 36 39 40 39 34 29 25 23 22 21 22 21 21 21 22 22 22 22 21 20 21 20 18 16 15 14 13 14 17 21 25 28 29 30 32 33 33 31 29
39 31 26 28 31 36 39 39 36 31 28 26 23 20 20 20 20 22 23 23 23 22 21 21 22 21 19 17 16 14 14 14 15 19 23 26 28 30 31 33 33 32 30
36 29 25 25 26 29 32 33 32 29 27 23 20 18 17 18 19 20 21 22 22 21 20 20 22 21 19 18 16 15 15 15 16 18 21 24 28 30 32 33 33 33 31
35 29 25 21 21 24 27 28 27 25 23 20 18 16 15 16 16 17 19 19 19 18 18 19 20 20 20 18 16 15 16 17 18 19 21 24 28 31 33 33 34 33 32
33 28 23 21 22 25 25 25 24 23 20 17 15 14 14 14 15 15 16 16 16 16 16 17 18 19 19 18 16 16 17 17 19 21 23 26 29 31 33 34 35 35 34
Wind_Direction
289 288 288 288 289 291 294 295 290 284 278 271 262 255 246 243 243 241 238 238 241 243 246 248 251 253 252 250 250 255 260 264 266 267 269 270 271 273 275 275 277 282 286
288 289 289 290 293 297 298 294 288 277 271 263 253 241 235 236 237 238 239 243 248 252 256 260 263 268 269 266 264 264 266 268 271 273 275 276 276 277 278 279 281 283 286
289 291 294 298 302 302 300 289 281 278 264 256 244 233 230 232 234 237 241 246 252 256 258 258 260 263 265 267 267 267 270 273 276 277 279 280 280 281 282 282 283 284 285
290 294 300 306 309 305 298 293 283 277 264 250 240 236 234 234 234 239 245 250 255 258 258 257 256 257 261 264 267 271 274 276 277 278 280 282 282 282 281 281 282 283 285
290 297 303 307 309 305 300 297 292 283 267 249 240 236 240 242 242 244 247 251 253 254 253 253 255 258 262 266 271 275 276 276 277 279 281 282 281 281 281 282 283 285 285
288 294 299 303 304 298 296 300 298 298 282 256 241 238 240 242 241 238 240 244 247 249 251 254 258 263 267 271 274 275 277 279 281 281 281 281 282 282 283 283 284 284 283
285 288 292 296 296 292 291 293 297 298 292 275 254 245 241 239 237 235 236 241 246 250 253 256 258 261 266 270 273 277 281 283 284 284 284 285 286 286 286 285 284 283 281
282 283 284 288 288 287 287 286 280 275 276 278 269 258 250 243 241 239 238 239 241 244 246 250 256 261 265 270 276 281 284 285 287 289 291 293 294 294 293 292 289 287 284
280 280 278 281 281 281 278 274 268 266 268 271 268 263 256 250 243 239 237 236 239 246 255 262 266 270 274 281 286 289 292 294 297 299 301 302 302 301 299 296 293 290 287
278 276 274 278 280 279 274 268 264 265 266 269 269 267 265 263 256 247 241 244 251 256 262 270 277 282 287 291 294 300 304 307 308 309 309 307 304 300 297 295 292 289 287
273 269 266 276 283 285 279 269 266 266 263 262 265 269 269 266 261 256 253 256 262 263 269 279 285 289 296 301 304 306 309 313 314 314 312 310 307 303 300 297 294 291 287
263 259 258 270 282 287 279 267 261 258 251 242 246 251 255 259 261 256 252 255 261 265 270 272 278 292 298 300 304 309 315 318 319 318 316 314 312 309 307 305 303 298 293
254 253 255 262 273 278 271 257 247 240 225 208 209 216 228 244 251 250 251 255 257 255 258 266 281 291 295 300 309 317 322 325 324 323 320 316 313 310 308 308 309 308 304
251 248 252 256 262 267 264 248 235 224 209 203 208 216 229 239 243 242 242 243 248 257 269 281 290 293 294 304 315 321 325 328 328 327 324 321 316 311 305 303 304 306 308
250 244 247 250 254 256 253 239 228 221 211 213 223 233 242 246 246 244 247 251 254 260 270 282 286 286 292 302 311 317 324 330 333 332 329 326 322 316 309 303 300 303 307
250 241 240 243 246 248 245 237 228 225 221 222 227 231 241 254 265 268 264 258 257 260 270 278 280 280 284 295 306 318 328 335 339 339 336 332 329 326 320 313 305 304 306
249 241 235 237 241 243 241 238 233 229 227 229 235 240 249 260 270 275 272 267 264 266 272 276 278 279 286 298 311 324 333 338 342 342 342 341 338 336 332 324 313 306 304
244 241 233 231 235 237 238 239 238 237 236 237 242 250 258 264 268 272 273 272 271 271 273 274 275 279 287 299 313 325 335 340 344 347 348 347 345 342 338 331 321 311 306
236 238 232 227 228 231 233 236 239 241 242 245 249 255 261 265 268 271 273 272 273 274 275 275 273 274 282 295 311 326 338 344 348 350 350 350 350 349 345 339 332 323 316
227 233 232 227 225 227 230 234 238 242 244 247 252 256 259 262 265 268 269 268 269 271 272 270 268 268 276 289 304 319 335 344 348 350 353 354 354 352 349 345 340 335 328
220 229 235 231 227 227 228 232 237 241 244 249 253 257 258 259 260 264 265 265 265 267 268 266 265 266 273 283 296 310 325 337 344 351 356 358 357 354 351 348 344 339 333
213 225 236 236 231 230 230 232 234 237 242 249 253 255 256 256 257 260 261 261 263 266 266 262 261 264 270 279 291 303 315 328 340 350 357 359 358 355 352 350 347 344 339
210 221 235 242 240 234 230 229 230 233 239 245 246 246 250 252 253 255 257 258 261 264 264 262 261 261 264 270 281 294 305 317 331 343 351 356 357 356 353 350 348 346 343
205 216 231 243 239 229 222 220 222 227 232 232 233 238 245 248 250 251 253 257 262 264 261 262 263 263 262 262 271 287 300 309 319 329 336 341 345 348 350 350 348 347 344
203 214 227 232 221 206 202 205 212 217 218 220 225 233 242 248 249 249 251 255 260 263 263 263 263 264 262 259 264 279 293 303 310 317 321 325 330 335 340 344 345 344 343
203 211 221 218 204 195 195 198 202 205 209 215 222 232 243 249 250 248 248 251 255 259 263 264 262 262 261 258 262 274 288 300 307 311 316 319 322 326 330 335 338 340 340
Height
5757 5754 5750 5746 5743 5738 5733 5727 5722 5719 5717 5718 5719 5721 5724 5727 5730 5733 5736 5737 5738 5739 5739 5741 5743 5745 5748 5751 5753 5756 5759 5760 5761 5762 5763 5763 5764 5764 5765 5765 5765 5764 5763
5747 5744 5740 5737 5733 5728 5722 5716 5712 5710 5709 5709 5711 5714 5717 5720 5724 5727 5729 5730 5732 5733 5734 5736 5739 5742 5744 5746 5748 5751 5752 5753 5754 5755 5755 5755 5755 5755 5755 5755 5754 5754 5753
5738 5735 5731 5727 5723 5718 5713 5708 5705 5703 5702 5704 5705 5708 5712 5715 5718 5721 5723 5725 5727 5728 5729 5732 5735 5737 5739 5741 5743 5745 5746 5746 5747 5747 5747 5747 5747 5746 5745 5744 5744 5744 5741
5730 5727 5724 5720 5715 5710 5706 5703 5700 5698 5697 5699 5701 5704 5707 5710 5713 5716 5719 5720 5722 5723 5724 5726 5728 5731 5733 5735 5736 5737 5738 5739 5739 5740 5740 5739 5738 5737 5736 5735 5734 5732 5730
5724 5721 5717 5714 5710 5706 5702 5699 5696 5694 5694 5695 5697 5700 5702 5705 5708 5711 5714 5715 5717 5718 5720 5721 5723 5725 5726 5727 5729 5730 5731 5731 5732 5732 5732 5731 5730 5728 5727 5725 5723 5721 5719
5718 5715 5713 5710 5706 5703 5700 5697 5694 5693 5691 5692 5693 5695 5698 5700 5703 5706 5708 5710 5712 5714 5716 5717 5718 5719 5720 5721 5722 5723 5723 5723 5723 5723 5723 5722 5720 5718 5716 5714 5713 5711 5710
5711 5710 5708 5706 5703 5700 5697 5695 5693 5692 5691 5690 5691 5692 5694 5696 5699 5701 5703 5706 5708 5710 5711 5712 5713 5713 5714 5716 5716 5716 5715 5715 5715 5714 5713 5711 5710 5707 5705 5704 5702 5700 5699
5705 5705 5703 5701 5699 5696 5694 5692 5691 5690 5690 5690 5690 5691 5692 5694 5696 5698 5699 5701 5703 5705 5706 5707 5708 5708 5709 5710 5710 5710 5710 5709 5708 5706 5705 5703 5700 5698 5695 5693 5692 5689 5687
5698 5699 5698 5696 5694 5692 5691 5690 5689 5689 5688 5688 5689 5689 5690 5691 5692 5694 5696 5697 5699 5701 5702 5703 5703 5704 5705 5705 5705 5705 5704 5703 5701 5699 5697 5694 5691 5688 5685 5682 5680 5679 5677
5691 5692 5692 5690 5689 5688 5687 5686 5685 5685 5685 5685 5685 5685 5686 5687 5688 5690 5692 5694 5695 5697 5698 5698 5699 5699 5700 5700 5700 5700 5699 5697 5695 5692 5689 5686 5683 5679 5675 5672 5669 5667 5665
5685 5686 5686 5685 5683 5682 5682 5681 5681 5681 5681 5680 5680 5680 5681 5683 5685 5687 5689 5691 5692 5694 5694 5694 5695 5695 5696 5696 5696 5695 5694 5691 5688 5685 5681 5677 5674 5670 5666 5662 5659 5656 5654
5678 5679 5680 5680 5679 5678 5676 5676 5676 5677 5677 5677 5677 5678 5679 5681 5682 5684 5686 5687 5689 5690 5691 5691 5692 5693 5693 5693 5692 5690 5688 5685 5681 5677 5673 5669 5665 5661 5657 5654 5651 5648 5646
5670 5671 5673 5674 5674 5673 5672 5671 5672 5673 5673 5674 5675 5676 5678 5679 5680 5681 5682 5684 5685 5687 5688 5688 5689 5689 5689 5688 5687 5684 5682 5679 5675 5671 5666 5661 5657 5653 5650 5647 5644 5641 5639
5660 5663 5665 5666 5668 5668 5667 5667 5667 5668 5669 5670 5672 5674 5675 5676 5677 5678 5679 5680 5682 5683 5684 5684 5684 5684 5684 5683 5682 5680 5677 5674 5669 5664 5659 5654 5649 5646 5643 5641 5638 5636 5633
5649 5653 5656 5658 5660 5661 5662 5662 5663 5664 5666 5668 5669 5671 5672 5673 5674 5675 5676 5677 5678 5679 5679 5680 5680 5680 5680 5680 5679 5677 5674 5670 5665 5660 5654 5649 5644 5640 5636 5634 5632 5630 5628
5637 5642 5646 5650 5652 5654 5656 5658 5659 5661 5662 5664 5666 5668 5669 5670 5671 5672 5672 5673 5674 5675 5675 5676 5676 5677 5677 5676 5675 5673 5670 5666 5661 5655 5650 5644 5639 5635 5631 5628 5626 5624 5622
5625 5630 5636 5640 5644 5647 5650 5652 5654 5656 5658 5660 5662 5664 5666 5667 5668 5669 5669 5670 5671 5671 5672 5672 5672 5673 5672 5671 5670 5668 5665 5662 5657 5652 5647 5641 5636 5631 5627 5624 5621 5619 5617
5612 5618 5624 5630 5635 5639 5642 5645 5648 5651 5653 5656 5658 5660 5661 5663 5664 5665 5666 5666 5667 5667 5667 5667 5668 5668 5668 5667 5666 5664 5662 5658 5654 5649 5644 5638 5633 5628 5624 5621 5618 5615 5612
5599 5606 5612 5619 5625 5630 5634 5638 5641 5644 5647 5650 5653 5654 5656 5657 5659 5660 5661 5662 5662 5662 5663 5663 5664 5664 5664 5663 5662 5660 5658 5654 5650 5646 5641 5636 5630 5625 5621 5617 5613 5610 5607
5587 5595 5601 5608 5615 5621 5626 5630 5634 5637 5640 5644 5647 5648 5650 5651 5653 5654 5655 5656 5657 5658 5658 5659 5659 5659 5659 5659 5658 5657 5655 5652 5648 5644 5638 5633 5628 5623 5618 5614 5610 5606 5602
5576 5584 5590 5597 5604 5611 5617 5622 5626 5630 5634 5637 5640 5642 5643 5645 5647 5648 5649 5650 5651 5652 5653 5653 5654 5655 5655 5654 5653 5652 5651 5648 5645 5641 5636 5630 5626 5621 5616 5611 5606 5601 5597
5565 5574 5581 5587 5594 5600 5607 5613 5618 5623 5627 5630 5633 5635 5636 5638 5640 5642 5643 5644 5645 5646 5647 5647 5648 5649 5649 5649 5648 5647 5646 5645 5642 5638 5633 5629 5624 5619 5614 5609 5603 5598 5593
5556 5566 5574 5579 5584 5590 5596 5603 5610 5616 5620 5624 5626 5629 5630 5631 5633 5635 5636 5637 5639 5640 5641 5641 5642 5643 5644 5644 5643 5642 5641 5640 5638 5634 5630 5626 5622 5617 5612 5607 5601 5595 5590
5550 5560 5567 5572 5575 5580 5587 5595 5602 5608 5613 5616 5620 5622 5623 5625 5627 5628 5630 5631 5633 5634 5635 5635 5636 5637 5638 5638 5638 5637 5636 5634 5633 5630 5626 5622 5618 5614 5609 5604 5598 5592 5587
5546 5555 5562 5566 5571 5576 5582 5589 5596 5601 5606 5610 5613 5616 5618 5619 5620 5622 5624 5625 5627 5628 5629 5630 5630 5631 5631 5632 5632 5631 5630 5629 5627 5625 5622 5619 5614 5610 5605 5600 5594 5588 5583
5542 5551 5557 5563 5568 5574 5580 5586 5592 5596 5600 5604 5608 5611 5613 5614 5615 5617 5618 5620 5621 5622 5623 5624 5624 5624 5625 5625 5626 5625 5624 5623 5622 5619 5616 5613 5610 5605 5600 5596 5591 5585 5579